GFSMW_sfc_thetae_132.txt.gz
Theta_e
321 327 329 332 333 338 340 348 351 358 362 358 356 356 354 358 357 359 365 358 357 359 359 358 355 358 352 356 356 356 354 349 350 346 343 344 348 347 346 345 345 346 347
318 326 329 333 336 338 342 347 349 355 363 360 359 359 355 352 354 355 359 362 356 356 355 352 351 352 353 356 356 354 349 349 350 340 339 330 333 338 342 341 345 339 345
318 325 328 333 335 337 339 343 350 354 356 362 362 364 362 361 358 357 360 357 355 355 354 354 352 355 354 352 354 355 350 345 344 343 337 328 324 331 336 337 338 339 337
321 326 333 334 338 337 340 340 342 352 349 361 357 362 353 347 353 351 355 357 359 359 360 356 356 355 357 353 352 353 350 346 338 340 340 339 338 327 323 332 336 335 336
320 322 326 332 336 340 342 345 349 352 355 361 363 356 355 355 355 353 363 359 361 361 356 356 354 357 355 351 349 347 348 345 341 336 333 332 332 332 329 323 326 334 335
320 323 327 332 333 338 341 344 347 349 351 351 354 355 354 353 352 350 348 353 356 355 353 352 353 351 350 347 346 346 343 342 340 338 334 328 323 321 322 319 320 321 324
318 320 322 324 329 330 335 336 339 338 341 341 339 342 339 351 352 350 344 346 349 349 352 348 347 345 346 344 343 344 341 342 338 337 333 331 326 324 323 320 317 316 320
317 318 321 322 322 326 328 329 329 329 332 336 335 338 338 334 335 339 339 338 336 333 350 340 345 344 344 344 341 340 338 336 335 333 333 329 327 325 322 319 317 313 315
320 319 319 322 322 324 328 327 329 329 331 332 333 334 334 334 332 334 337 334 335 332 334 337 338 342 341 340 340 337 336 336 336 333 336 333 328 326 325 322 320 316 308
317 318 319 324 325 326 327 331 329 328 328 330 330 328 331 331 332 332 331 332 334 331 329 331 332 334 336 340 339 335 335 334 332 330 329 330 328 327 326 324 321 319 315
315 316 318 320 321 323 322 326 325 324 326 327 328 330 327 327 329 329 329 330 331 331 328 328 328 329 329 331 332 334 333 330 331 331 329 327 329 327 325 323 322 319 318
315 316 316 318 318 319 319 319 323 321 323 324 324 325 326 326 327 327 327 327 326 326 324 324 323 323 323 326 328 328 328 328 328 328 327 326 327 327 326 324 321 320 319
314 314 315 314 316 316 316 316 319 319 320 319 319 323 325 325 324 325 325 324 322 321 321 320 319 318 318 319 320 320 321 324 326 325 325 324 325 323 323 324 324 323 322
313 312 313 313 314 315 315 315 317 318 318 317 317 318 321 321 320 320 320 320 320 318 317 317 316 316 315 315 315 315 315 316 316 318 320 323 323 322 322 322 321 322 320
310 311 312 313 315 317 317 316 316 317 318 316 315 316 317 318 317 317 317 318 317 316 315 314 314 315 314 313 312 313 312 312 312 314 314 315 317 316 317 320 320 320 318
309 310 312 313 314 315 316 317 317 316 316 314 313 314 314 314 314 315 315 315 315 315 315 314 313 312 312 306 302 303 305 308 308 308 310 312 314 313 311 310 312 316 316
310 310 311 314 315 316 317 316 315 315 314 313 312 312 312 310 310 311 311 311 312 313 311 311 311 310 310 302 297 299 301 301 303 304 304 305 307 308 310 310 309 310 307
310 311 311 313 315 316 316 317 314 314 313 311 310 310 309 308 308 308 308 309 308 307 305 305 305 305 304 299 296 297 298 299 300 301 301 301 301 302 303 305 305 307 309
311 312 312 313 315 314 315 314 313 312 311 309 308 308 307 306 306 305 304 303 302 302 301 301 299 298 296 296 296 297 298 299 299 300 300 300 300 299 297 299 299 302 304
311 310 311 312 314 314 317 312 310 310 308 307 307 307 305 303 301 301 300 300 299 295 294 293 294 295 294 296 295 296 298 297 297 298 299 298 298 296 295 297 298 298 300
309 310 311 311 313 315 313 309 308 306 307 305 303 302 301 299 299 297 295 292 291 292 292 292 292 293 294 294 294 295 295 295 295 295 296 298 296 295 294 295 297 297 299
308 308 308 309 310 310 308 306 305 304 303 301 300 298 297 296 293 290 290 291 291 291 290 290 290 292 294 295 295 294 294 295 294 294 296 297 295 294 294 294 295 294 296
307 305 305 305 306 306 305 301 301 300 298 296 295 294 292 289 289 289 290 289 290 290 289 289 289 290 293 295 295 294 293 294 294 295 296 294 294 293 293 294 294 295 298
302 302 302 301 301 302 300 299 297 296 293 291 291 288 287 288 290 289 289 288 289 288 288 288 288 290 292 293 294 295 296 296 297 297 295 294 294 295 296 297 299 300 302
301 300 298 297 296 296 295 294 294 292 289 288 286 286 287 286 286 287 287 288 290 290 288 288 289 288 288 291 293 293 293 295 294 291 292 293 295 298 298 299 301 303 304
297 295 294 293 292 292 291 292 292 289 286 283 284 284 284 285 285 286 287 290 290 290 290 290 290 290 291 291 291 291 290 290 290 290 290 290 293 299 299 300 302 304 304

GFSMW_sfc_thetae_138.txt.gz
Theta_e
313 318 328 331 331 330 329 328 330 331 335 339 349 348 349 348 349 352 352 351 351 349 349 348 345 343 342 340 339 340 342 340 335 334 331 332 335 335 336 337 337 335 334
312 319 321 321 321 323 327 325 327 330 332 338 347 349 347 348 350 349 348 349 349 351 350 346 342 341 342 341 341 342 339 338 336 330 327 324 325 327 329 334 333 333 332
308 318 320 321 324 323 323 324 325 328 330 338 344 342 344 341 340 341 343 347 350 349 337 335 339 342 340 341 337 338 338 336 333 333 328 320 319 319 324 328 329 328 326
311 317 322 328 331 332 336 336 336 337 338 339 335 337 337 334 336 338 342 345 342 337 338 338 340 339 340 338 334 333 335 337 333 330 331 326 322 319 317 320 324 327 328
315 319 327 330 332 334 331 330 328 327 329 330 330 331 333 337 332 329 334 337 337 333 335 332 334 338 339 339 337 335 337 339 336 328 328 323 322 321 318 315 313 316 319
315 324 328 329 328 328 326 325 325 324 325 325 325 325 326 325 326 325 323 324 328 334 331 328 330 338 340 338 336 336 334 336 331 328 327 324 319 314 312 310 311 309 311
317 318 320 323 322 321 321 320 319 319 321 321 320 321 320 321 321 323 323 322 322 324 327 330 330 332 333 333 331 330 330 328 326 326 324 323 320 318 314 310 308 309 309
314 315 316 317 318 317 318 318 317 316 316 318 316 318 318 317 318 318 318 319 321 320 322 324 324 326 329 330 329 326 327 327 328 327 326 327 324 320 317 312 307 304 305
312 313 313 315 316 316 316 316 315 315 314 313 313 313 313 313 314 314 315 316 317 321 320 322 322 322 324 325 326 327 326 324 323 323 321 319 319 319 316 314 313 312 303
309 310 313 314 314 315 316 314 314 313 313 312 313 312 312 312 312 312 313 313 314 314 316 316 316 315 316 317 317 318 323 325 326 325 323 324 324 324 322 321 317 312 313
309 312 312 312 312 313 311 310 310 312 310 310 309 311 311 311 311 311 311 311 311 311 313 314 313 313 313 313 311 311 314 316 318 320 321 321 321 319 319 318 316 314 311
306 308 310 312 312 311 309 309 307 308 308 308 307 308 309 309 308 308 308 309 309 310 310 311 311 312 311 309 309 309 310 310 310 312 314 317 322 318 317 317 317 316 315
306 307 306 310 311 309 308 307 307 307 307 307 306 306 306 306 305 306 306 307 307 308 309 310 310 311 311 309 308 308 308 307 307 307 307 308 308 307 310 310 313 314 317
305 303 303 304 305 305 306 306 306 306 307 307 306 305 304 304 304 304 304 305 306 306 306 306 307 307 307 307 306 305 303 302 304 305 305 306 306 305 306 306 305 307 308
305 304 302 302 303 304 306 306 306 306 306 305 304 303 304 303 304 303 302 303 302 302 303 302 302 303 303 306 302 300 299 298 299 301 302 303 306 310 308 305 302 302 303
305 305 305 305 305 305 306 307 305 305 305 304 304 305 305 304 301 300 300 299 298 298 298 298 299 299 301 301 301 300 296 296 296 296 298 299 302 303 305 306 307 305 301
303 303 303 303 304 305 305 304 304 305 305 304 305 304 302 300 299 298 297 296 295 295 294 295 296 296 296 298 298 299 295 294 294 294 295 296 299 301 301 302 304 303 303
301 301 301 301 302 303 303 304 304 304 302 299 299 299 298 297 296 295 294 293 292 292 292 293 293 293 293 296 295 296 295 295 295 295 296 297 298 300 301 300 299 299 300
300 300 301 300 300 301 301 300 298 298 298 297 297 297 295 294 293 292 291 291 289 289 290 291 292 293 293 294 294 294 293 293 293 296 297 296 297 298 296 298 297 297 298
298 299 298 297 296 297 296 294 294 294 294 294 294 294 293 292 290 289 288 287 288 289 291 291 292 293 293 294 294 294 293 292 292 294 295 297 297 295 295 296 296 294 295
296 297 295 293 293 294 293 291 291 291 293 293 292 291 290 288 288 287 286 287 289 290 290 290 291 292 292 292 293 293 292 292 292 293 294 295 295 294 293 293 295 295 297
293 294 292 291 290 292 290 289 288 291 292 290 289 287 286 286 286 285 287 289 289 288 288 288 289 290 292 293 293 292 293 294 292 293 294 295 294 293 293 293 293 293 294
291 290 289 289 289 289 289 287 287 289 288 286 285 284 284 284 285 287 286 286 287 286 286 287 288 289 291 292 293 292 292 293 293 294 295 294 293 292 293 293 293 293 294
289 288 287 287 287 288 288 286 287 287 285 283 282 282 282 284 286 286 286 286 285 286 286 286 287 288 289 290 292 292 293 294 294 295 295 294 293 293 294 294 295 296 297
288 288 287 287 287 286 286 286 285 285 282 281 281 283 284 284 284 285 286 286 287 287 286 287 288 287 287 290 291 291 291 292 292 292 291 291 291 290 291 292 293 295 298
287 287 286 285 285 284 284 284 284 283 281 282 283 283 284 284 285 284 285 288 289 289 289 289 289 290 290 291 291 291 291 290 290 289 289 288 290 289 290 290 292 295 299

GFSMW_sfc_thetae_141.txt.gz
Theta_e
317 333 335 335 336 333 334 334 332 334 330 332 335 345 347 348 348 349 347 346 346 345 342 342 340 342 342 343 340 338 336 336 334 332 333 334 334 336 335 337 336 336 335
313 319 327 331 331 331 330 329 329 331 330 329 332 341 346 346 346 346 346 348 349 348 345 344 342 343 342 340 337 338 336 335 332 328 326 324 326 328 329 331 334 333 333
311 315 317 322 323 325 327 327 325 326 326 328 337 341 341 340 338 338 340 341 345 348 347 343 342 339 339 341 337 334 334 332 331 332 328 320 318 321 324 328 329 329 325
307 316 319 321 322 324 325 326 328 331 335 336 332 334 333 331 332 332 335 337 336 337 337 337 336 334 334 337 336 333 331 332 332 331 332 327 325 320 318 321 324 325 327
310 318 325 329 331 330 326 324 325 325 326 327 329 331 327 326 325 325 325 327 331 333 333 331 328 327 335 336 337 333 330 331 332 331 328 325 324 325 321 318 317 316 318
316 325 327 329 325 324 322 322 321 320 322 324 324 323 322 322 322 321 321 321 323 324 326 331 330 331 333 336 337 332 333 335 335 331 331 325 320 318 315 313 314 312 312
324 325 324 324 321 318 318 319 319 316 317 318 319 318 316 316 315 316 316 317 317 318 319 321 321 323 326 328 328 327 329 329 328 327 327 323 321 318 316 313 313 309 310
323 323 322 319 318 316 315 315 314 313 312 313 312 312 313 313 313 313 313 313 314 315 316 317 317 318 320 321 323 324 324 324 325 324 323 323 324 321 319 314 312 304 304
319 319 317 317 315 314 314 314 312 311 311 310 310 309 310 311 310 310 311 311 312 315 314 314 313 314 315 317 316 318 319 321 322 322 321 320 320 321 319 315 312 309 303
313 313 315 314 314 314 313 312 312 310 309 310 309 309 309 310 309 308 308 308 309 309 310 311 311 311 311 311 309 309 311 313 314 318 317 318 320 321 320 320 318 316 313
310 312 312 312 313 312 312 312 311 309 308 308 308 308 308 307 307 306 306 306 306 307 307 309 309 309 309 309 308 308 309 308 308 309 312 313 315 315 316 317 315 313 311
309 308 310 310 310 309 307 307 308 307 307 306 307 307 306 305 304 304 304 304 304 305 307 307 308 308 308 307 306 306 306 306 306 306 307 308 312 307 309 311 311 312 312
307 307 309 309 309 308 306 305 306 305 305 305 305 304 304 303 303 303 303 303 304 304 304 304 305 305 305 305 304 304 304 303 303 304 304 304 304 302 303 304 304 305 309
306 305 305 305 306 306 305 305 305 305 305 305 304 303 302 302 301 301 301 302 302 301 301 301 302 303 302 303 303 302 300 300 301 301 302 303 303 302 302 304 303 303 302
303 302 300 301 302 303 304 305 305 305 305 304 303 303 302 301 300 300 299 299 298 298 298 299 299 299 299 300 299 299 298 297 297 299 300 300 302 306 306 305 301 299 299
304 303 303 303 303 304 305 305 304 303 303 302 301 301 300 299 298 297 296 295 295 295 295 295 295 295 297 298 299 300 295 295 295 294 295 296 299 299 302 304 305 304 299
303 303 303 301 301 302 303 301 301 301 299 298 299 298 297 296 295 295 294 292 291 291 291 291 292 292 292 295 296 297 294 293 293 293 294 294 297 299 299 300 302 303 304
299 297 297 296 297 298 298 298 298 298 297 296 296 295 294 293 292 291 291 290 289 289 288 288 289 290 291 295 295 295 294 294 294 294 294 294 296 297 297 298 300 300 300
296 294 294 294 294 294 294 294 294 294 294 293 292 293 292 290 290 289 288 287 286 286 287 288 291 290 290 294 294 294 293 293 293 294 295 295 295 296 295 297 297 297 298
294 292 292 292 291 291 291 290 290 290 290 291 291 291 290 288 286 286 285 285 285 286 289 290 292 292 292 293 293 293 293 291 292 293 294 296 295 295 294 295 295 295 295
293 292 290 289 289 290 289 288 287 287 290 290 289 288 287 285 285 284 284 285 287 289 289 289 290 290 290 290 293 293 292 291 291 292 293 294 295 294 293 293 295 295 296
289 290 288 287 287 289 287 285 285 288 288 287 286 285 284 284 284 282 286 286 285 287 287 287 287 288 289 292 292 292 292 293 291 291 293 294 294 293 293 293 293 293 294
288 287 286 286 286 286 286 284 284 285 286 284 282 281 282 282 283 283 285 285 286 286 286 286 287 288 289 291 293 292 292 293 292 294 294 294 293 293 293 293 293 293 294
286 286 285 285 284 285 285 284 284 284 283 281 281 281 282 284 285 286 286 285 285 285 286 286 286 287 289 290 292 292 292 293 293 294 294 294 293 293 293 293 294 294 295
285 285 283 283 282 283 283 283 283 283 281 282 283 283 284 284 285 286 286 286 287 287 286 286 287 287 287 289 291 291 291 291 292 292 291 291 290 290 291 291 292 293 294
284 282 282 282 281 282 282 283 283 283 282 282 283 283 284 284 285 285 285 288 289 290 290 289 289 290 290 290 290 290 290 290 290 290 289 288 289 289 290 290 290 292 294

GFSMW_sfc_thetae_144.txt.gz
Theta_e
310 330 334 336 336 336 334 334 333 332 332 332 333 340 345 347 347 348 347 345 344 344 342 342 341 340 341 343 342 341 340 341 340 336 338 338 340 339 340 341 341 340 341
310 325 330 331 332 333 332 332 332 331 331 330 331 334 339 344 346 347 347 349 349 349 346 342 342 341 341 342 341 338 339 339 337 334 331 328 329 333 332 335 337 339 338
310 317 323 326 328 329 329 329 328 327 328 328 330 336 341 340 337 337 337 338 338 341 340 341 341 341 341 342 341 337 336 336 336 333 332 325 322 323 328 333 335 335 335
310 315 318 319 321 323 325 327 328 330 331 336 334 334 330 328 328 328 328 327 328 330 335 334 333 333 335 337 336 338 337 335 334 334 335 331 328 322 319 324 327 329 332
307 314 318 323 327 327 325 324 324 325 326 328 328 326 324 324 325 323 322 323 323 324 326 327 329 331 333 334 337 338 334 333 333 333 330 330 328 327 323 320 322 323 325
307 321 326 326 322 322 321 320 320 319 322 323 323 321 318 317 316 316 316 318 320 320 321 322 323 324 325 327 330 332 332 333 334 333 332 330 325 325 323 321 321 319 323
319 324 324 322 319 318 317 317 317 316 317 318 318 317 315 314 314 314 314 314 315 316 316 318 318 320 321 322 323 325 326 327 327 327 328 328 328 326 324 321 320 319 321
322 324 324 320 319 317 316 315 315 313 313 314 314 314 313 313 313 313 313 313 314 315 316 316 316 316 317 318 318 319 320 321 323 322 324 325 326 326 324 322 320 314 312
323 323 319 319 317 315 314 314 312 311 311 311 311 312 312 311 311 312 312 311 313 315 314 314 314 314 315 315 314 314 315 317 319 319 322 322 324 325 325 322 320 317 312
322 320 319 318 317 316 314 313 312 311 310 310 310 310 311 311 310 310 310 310 310 311 310 311 312 312 313 313 312 311 313 314 313 316 316 318 322 322 324 324 323 321 318
319 318 316 315 314 313 312 312 310 310 309 309 309 309 309 309 309 308 309 309 309 309 310 310 311 311 310 309 309 310 311 309 310 311 311 312 315 317 317 319 320 320 318
311 311 311 312 312 311 311 310 310 309 308 309 308 308 308 308 307 307 307 307 307 308 308 308 308 307 307 307 307 307 307 307 306 307 308 308 309 309 310 311 312 315 317
308 309 310 310 309 307 307 308 308 306 306 307 307 307 306 306 305 304 305 306 305 304 304 304 304 304 304 304 304 306 306 305 304 304 305 305 306 306 306 306 307 309 310
307 306 307 306 307 307 306 305 305 306 307 307 305 304 303 302 302 302 302 302 301 300 300 300 301 301 301 301 301 302 304 302 301 302 303 302 303 303 304 304 306 307 307
304 305 303 305 303 304 305 306 306 306 305 303 301 300 300 300 300 299 299 299 298 298 298 298 298 298 298 298 299 299 299 299 299 300 300 301 302 303 303 303 304 305 304
302 303 303 303 303 304 303 302 302 300 300 299 298 299 298 298 297 296 296 296 295 294 295 294 294 294 295 296 297 297 296 296 295 295 297 297 299 298 299 300 301 302 301
301 299 298 297 297 297 298 297 298 298 297 297 297 296 295 294 294 294 293 293 292 292 291 291 291 291 292 294 295 296 296 295 295 295 295 296 297 299 298 299 300 301 301
298 296 294 293 293 294 295 295 296 296 295 294 293 293 293 292 291 291 290 290 289 288 288 288 290 290 292 294 294 295 295 294 294 295 295 295 295 296 297 298 297 298 300
294 292 292 291 291 291 292 292 292 292 292 292 291 291 290 289 288 287 287 287 286 286 287 288 290 291 293 293 294 294 293 293 293 294 295 295 295 296 295 295 295 296 299
291 290 291 290 289 289 290 289 289 289 289 290 289 289 288 287 286 285 285 285 286 287 289 289 291 292 292 292 292 292 293 292 292 294 295 295 295 294 294 294 294 293 295
290 290 289 287 288 289 288 286 286 286 288 288 287 287 286 285 285 285 285 286 288 288 287 289 290 290 291 291 292 292 292 292 291 292 292 294 294 294 293 293 295 294 296
288 288 287 286 287 287 286 284 283 285 286 286 285 284 284 284 284 284 284 286 286 287 287 288 289 290 291 291 292 292 292 293 292 292 293 294 293 293 292 293 293 293 294
287 286 285 285 285 285 285 282 283 284 284 283 282 283 284 284 284 284 286 286 287 286 286 287 288 289 290 291 292 292 292 293 292 293 294 293 293 293 293 293 293 293 294
285 285 283 283 282 283 283 283 284 284 283 282 283 284 284 286 286 287 287 286 286 286 286 286 287 288 289 290 291 291 292 292 292 293 293 294 293 293 293 293 294 294 294
284 283 282 282 282 283 284 284 284 284 283 283 284 284 285 285 286 286 287 287 288 288 287 287 288 287 287 289 290 290 289 290 290 290 291 292 291 291 291 291 292 293 293
282 282 282 282 283 284 284 285 286 285 285 284 284 285 285 285 285 285 286 289 289 289 289 289 289 289 289 289 289 289 289 289 289 290 290 290 290 290 290 290 291 292 292

GFSMW_sfc_thetae_147.txt.gz
Theta_e
322 327 336 339 342 344 345 345 346 348 346 345 344 346 345 347 347 354 358 357 354 352 355 353 353 353 351 352 353 351 350 348 351 347 344 346 349 350 348 347 345 344 348
321 325 337 340 342 343 344 344 344 344 344 343 344 344 346 347 350 348 345 346 348 350 351 351 351 352 350 354 352 350 348 347 350 344 345 330 334 341 344 343 341 340 344
320 322 331 338 340 342 342 342 343 342 342 342 341 343 349 345 338 335 332 336 341 343 344 344 345 345 344 340 341 341 341 339 344 345 340 329 325 332 335 333 330 331 339
320 322 327 333 337 338 339 340 341 344 346 348 347 347 342 333 330 328 328 327 330 330 331 333 335 338 339 340 342 342 342 340 338 341 342 343 341 333 328 330 330 330 328
320 322 326 331 334 336 337 339 342 344 345 343 341 334 330 327 326 325 326 327 327 327 326 327 328 328 327 331 335 339 339 338 335 334 334 338 339 337 331 325 328 329 330
318 321 328 333 333 334 335 337 337 337 337 334 333 331 327 326 322 323 321 322 322 323 325 325 326 327 326 326 326 329 331 333 336 336 338 335 330 330 330 329 328 329 331
317 321 329 330 332 331 332 331 331 329 329 328 328 328 327 328 326 324 321 321 320 320 323 325 325 323 325 325 325 325 325 325 326 328 327 331 332 334 331 330 329 329 331
316 322 329 330 331 330 329 328 327 325 326 325 325 326 327 322 322 324 321 320 319 319 324 323 323 323 323 323 324 320 320 323 321 322 324 322 325 329 331 329 327 324 325
317 322 330 331 330 328 327 327 325 324 324 324 325 325 325 325 322 324 324 320 322 319 320 321 321 321 321 321 322 318 320 321 321 320 321 319 318 321 324 327 328 325 320
321 326 329 330 329 328 327 326 325 323 323 323 324 322 323 323 322 322 321 320 321 320 319 319 320 319 319 318 318 316 317 318 316 316 318 319 318 319 319 319 321 323 321
324 327 328 328 326 325 323 322 322 321 320 321 321 321 320 320 320 320 319 318 319 318 317 317 316 315 315 315 314 314 313 313 314 314 314 314 317 315 316 316 316 316 317
326 327 325 324 323 322 321 320 319 319 319 319 319 318 318 318 317 316 316 317 316 315 313 312 311 311 311 312 311 310 310 309 309 310 310 309 309 312 314 313 314 314 315
324 323 323 322 322 321 320 319 318 317 317 317 317 317 316 315 314 314 314 313 311 311 310 309 309 308 308 308 308 307 306 306 308 308 308 307 307 308 308 310 310 311 312
321 321 320 319 319 318 317 317 315 316 316 315 314 313 312 312 311 310 309 308 308 307 307 307 306 305 305 305 304 304 304 305 305 306 306 306 306 306 307 307 308 308 307
316 316 316 316 314 314 314 313 313 313 313 311 310 309 308 307 307 306 306 305 305 304 304 303 303 303 302 301 301 301 302 303 303 304 304 305 305 304 304 304 306 306 304
308 308 309 309 309 309 309 309 308 308 309 307 305 305 305 304 303 303 302 302 302 301 300 300 299 299 300 297 295 297 300 301 301 302 303 304 303 303 301 300 301 301 301
305 304 303 303 303 304 305 304 304 305 304 303 302 301 301 300 300 299 299 299 298 298 297 298 298 299 300 295 294 295 297 298 299 299 299 300 302 302 303 301 300 300 301
299 300 299 299 299 300 300 301 300 301 300 300 299 298 297 297 297 297 296 296 296 295 296 296 297 298 299 295 294 294 298 297 298 298 298 298 298 300 299 297 297 299 301
296 293 294 295 295 296 297 298 298 297 297 296 296 295 294 294 294 294 294 294 294 294 294 295 297 296 295 295 293 294 298 297 297 298 299 298 297 296 295 295 295 296 297
297 296 296 296 295 294 295 295 294 293 293 292 293 293 293 292 292 292 293 294 294 293 295 296 295 295 298 295 293 294 294 294 294 295 296 297 297 294 294 295 294 293 295
295 295 295 293 292 292 293 291 291 290 291 291 292 291 291 291 292 292 293 293 293 290 293 294 297 298 298 297 293 293 293 293 292 293 294 297 295 294 293 293 295 294 296
293 293 292 291 291 291 291 290 289 290 291 290 290 290 290 290 291 291 292 292 290 291 292 293 295 295 296 294 293 292 292 293 292 293 294 295 294 293 292 293 293 292 294
291 291 290 290 290 290 290 288 288 289 287 287 288 289 289 290 290 291 289 289 290 289 291 291 291 291 293 293 293 292 292 292 293 294 294 293 292 292 293 293 293 293 295
289 289 289 288 288 288 288 288 287 287 287 287 288 289 289 289 289 290 290 289 289 288 288 288 288 290 291 292 294 292 293 293 293 294 293 293 293 293 294 294 294 295 295
289 289 288 287 287 288 288 288 288 287 287 288 287 287 288 288 287 288 288 288 290 289 287 288 289 288 288 291 290 289 290 292 292 291 292 294 294 293 293 293 294 295 295
289 288 287 287 286 287 287 287 288 287 287 286 286 287 287 287 288 287 287 289 289 289 289 289 288 289 289 288 288 288 289 289 290 292 294 295 295 294 294 294 294 294 294